Showing default

HAWK-13C, 67393

Orbit data source: Space-Track

HAWK-13C, 67393 is a payload satellite owned by HawkEye 360 (US) in SSO that was launched on Sun, 11 Jan 2026 UTC via an FALCON 9 launch vehicle from the Air Force Western Test Range (AFWTR). Payload-class satellites include a variety of spacecraft equipped with specific instruments for various scientific and technological missions. These include communications satellites like Starlink; space stations such as the ISS; scientific satellites like the Hubble; Earth observation satellites from companies like Planet Labs, Umbra, and HawkEye 360; GPS; miniature CubeSats for education and research; and military/defense satellites.

Loading next visibility...
Identifier
67393, 2026-004AG
Orbit
SSO
Country
Flag of USUS
Related business
Manufacturer
UTIAS-SFL
Mission
Operational Commercial Sigint
Bus & Motor
HAWK2G, Unknown motor
Mass
31 kg wet, 30 kg dry
Launch date (UTC)
2026-01-11 (8 months ago)
Launch vehicle
FALCON 9
Launch site
Air Force Western Test Range (AFWTR)
Object type
Payload
Rocket body
Debris
Shape & HBR
Box + 2 Pan, 1.0 m
Radar Cross Section
0.240 m², Medium (>0.1 m² and < 1m²)

Expand to show TLE details & history
Last TLE update: 11 hours ago

TLE from 11 hours ago
0 HAWK-13C
1 67393U 26004AG  26264.47231854  .00002774  00000-0  13271-3 0  9991
2 67393  97.4653 262.5922 0005749  19.8485 340.2973 15.19809260 38383
Epoch: 2026-09-21T11:20Z
TLE epoch observation values (Epoch: 2026-09-21T11:20:08.321Z)
Latitude
Longitude
92.20587°
Altitude
505.778 km
Speed
7.613 km/s
True Right ascension
17h 30m 22s
True Declination
0° 00' 00"
Sunlit
Object was in daylight at epoch
Visualization orbit readout
Latitude
Unknown
Longitude
Unknown
Altitude
Unknown
Speed
Unknown
Apparent Right ascension
Unknown
Apparent Declination
Unknown
Sunlit
N/A
Visualization observer readout
Local Sidereal Time
15:39:03
Azimuth
Unknown
Elevation
Unknown
Doppler factor
Unknown
Orbital elements
Apogee altitude
507.341 km
Perigee altitude
499.429 km
Semi-major axis
6,881.522 km
Eccentricity
0.00057
Inclination
97.4653°
RAAN
262.5922°
Arg. of periapsis
19.8485°
True anomaly
340.27507°
Mean anomaly
340.2973°
Eccentric anomaly
340.28619°
Mean motion
3.80204 °/min
Orbital period
94.69 mins
BSTAR
0.00013271
Loading maneuver chart data...
Computing Atmospheric mass density...
Loading historical data...
Loading historical data...
Loading historical data...
Loading historical data...
Loading historical data...
Loading historical data...
Loading historical data...

Documentation

Showing up to 5 results
|